Creek Data

    Home     View Charts     View Raw Data     Messages

ID Distance Battery Voltage Battery Current Internal Temp Internal Humidity External Temp Solar Input rssi snr Time Stamp Record
68190 14.7 3.53 -5 49 51 51 0 -73 9 03/07/2026 05:15 AM 51055
68189 14.7 3.49 -5 49 51 52 0 -75 9 03/07/2026 05:00 AM 51054
68188 14.7 3.70 -5 47 52 51 0 -73 9 03/07/2026 04:45 AM 51053
68187 14.7 3.70 -5 46 52 49 0 -76 9 03/07/2026 04:30 AM 51052
68186 14.7 3.52 -5 47 52 47 0 -74 9 03/07/2026 04:15 AM 51051
68185 14.7 3.53 -5 48 52 50 0 -74 9 03/07/2026 04:00 AM 51050
68184 14.7 3.53 -5 48 51 50 0 -74 9 03/07/2026 03:45 AM 51049
68183 14.7 3.52 -5 48 51 51 0 -74 9 03/07/2026 03:30 AM 51048
68182 14.7 3.70 -5 48 51 50 0 -74 8 03/07/2026 03:15 AM 51047
68181 14.7 3.71 -5 49 51 50 0 -74 9 03/07/2026 03:00 AM 51046
68180 14.7 3.52 -5 49 51 52 0.1 -74 8 03/07/2026 02:30 AM 51044
68179 14.7 3.52 -5 48 51 51 0 -74 9 03/07/2026 02:15 AM 51043
68178 14.6 3.71 -5 48 52 51 0 -74 8 03/07/2026 02:00 AM 51042
68177 14.6 3.51 -5 46 52 51 0 -74 8 03/07/2026 01:45 AM 51041
68176 14.6 3.52 -34 46 53 49 0 -75 8 03/07/2026 01:30 AM 51040
68175 14.7 3.48 -5 47 53 48 0 -75 9 03/07/2026 01:15 AM 51039
68174 14.7 3.47 -5 48 52 49 0 -75 9 03/07/2026 01:00 AM 51038
68173 14.7 3.70 -5 48 52 50 0 -73 9 03/07/2026 12:45 AM 51037
68172 14.7 3.48 -5 49 52 52 0 -74 9 03/07/2026 12:30 AM 51036
68171 14.6 3.52 -5 48 52 51 0 -74 9 03/07/2026 12:15 AM 51035
68170 14.6 3.70 -5 48 53 51 0 -74 8 03/07/2026 12:00 AM 51034
68169 14.7 3.47 -5 49 53 49 0 -75 9 03/06/2026 11:30 PM 51032
68168 14.7 3.66 -5 50 52 49 0 -74 8 03/06/2026 11:15 PM 51031
68167 14.6 3.72 -5 51 52 54 0 -73 8 03/06/2026 11:00 PM 51030
68166 14.6 3.71 -5 51 52 53 0 -74 8 03/06/2026 10:45 PM 51029